Regional Weather Roundup
Issued by NWS

Home | Current Version | Previous Version | Graphics & Text | Print | Product List | Glossary On
Versions: 1 2 3 4 5 6 7 8 9 10 11 12 13 14 15 16 17 18 19 20 21 22 23 24 25 26 27 28 29 30 31 32 33 34 35 36 37 38 39 40 41 42 43 44 45 46 47 48 49 50
000
ASUS43 KIND 011109
RWRIN

WEATHER ROUNDUP FOR INDIANA
NATIONAL WEATHER SERVICE INDIANAPOLIS IN
700 AM EDT FRI AUG 01 2014

NOTE: "FAIR" INDICATES FEW OR NO CLOUDS BELOW 12,000 FEET WITH NO
SIGNIFICANT WEATHER AND/OR OBSTRUCTIONS TO VISIBILITY.

* - STATION DOES NOT REPORT WEATHER SUCH AS PRECIPITATION OR FOG.

+ - STATION NOT QUALITY CONTROLLED BY THE NATIONAL WEATHER SERVICE.
    USE DATA WITH CAUTION...ESPECIALLY DEWPOINT AND RELATIVE
    HUMIDITY OBSERVATIONS.

INZ001>003-010>013-019-020-011200-
NORTHWEST INDIANA

CITY           SKY/WX    TMP DP  RH WIND       PRES   REMARKS
GARY /AIRPORT/ PTCLDY    61  59  94 SW3       30.08R FOG
KNOX *+        CLEAR     56  54  93 S3        30.09R
LA PORTE +     CLEAR     56  56 100 CALM      30.10R
MICHIGAN CITY+ PTCLDY    59  59 100 CALM      30.09R FOG
MONTICELLO +   CLEAR     58  57  98 CALM      30.10R
RENSSELAER +   CLEAR     54  54 100 CALM      30.10R FOG
VALPARAISO     CLEAR     60  59  96 CALM      30.09R FOG

$$

LMZ046-743>745-011200-
SOUTHERN LAKE MICHIGAN

STATION/POSITION TIME  TEMP WIND        PRES
                       AIR  DIR/SP/G
                 (UTC) (F)  (DEG/KT/KT) (MB)
MICHIGAN CITY    1100   66  170/  6/  8   N/A

$$

INZ004-005-014>016-021>024-011200-
NORTH CENTRAL INDIANA

CITY           SKY/WX    TMP DP  RH WIND       PRES   REMARKS
ELKHART        CLEAR     61  59  94 CALM      30.10
GOSHEN         CLEAR     62  59  90 CALM      30.10R FOG
LOGANSPORT +   CLEAR     54  54 100 CALM      30.12R FOG
PERU/GRISSOM   CLEAR     59  59 100 S2        30.11R
ROCHESTER +    CLEAR     61  59  94 CALM      30.11R
SOUTH BEND     CLEAR     63  59  87 SW3       30.09R
WARSAW +       CLEAR     59  57  94 CALM      30.11R FOG

$$

INZ006>009-017-018-025>027-011200-
NORTHEAST INDIANA

CITY           SKY/WX    TMP DP  RH WIND       PRES   REMARKS
ANGOLA *+      MOCLDY    59  59 100 CALM      30.10R VSB 1/2
FORT WAYNE     CLEAR     60  57  89 SW3       30.12R
HUNTINGTON +   CLEAR     58  57  97 CALM      30.12R

$$

INZ028-029-035-036-043>045-051>053-011200-
WEST CENTRAL INDIANA

CITY           SKY/WX    TMP DP  RH WIND       PRES   REMARKS
GREENCASTLE +  CLEAR     59  57  94 CALM      30.11S FOG
LAFAYETTE      CLEAR     57  56  96 CALM      30.10R
TERRE HAUTE    CLEAR     57  56  96 CALM      30.10R

$$

INZ030>032-037>040-046>048-054>057-064-065-011200-
CENTRAL INDIANA

CITY           SKY/WX    TMP DP  RH WIND       PRES   REMARKS
CP ATTERBURY + CLEAR     55  54  94 CALM      30.12R FOG
COLUMBUS       CLEAR     57  57 100 CALM      30.12  FOG
INDIANAPOLIS   PTCLDY    62  60  93 CALM      30.10R
-EAGLE CREEK   CLEAR     61  58  90 CALM      30.11R
KOKOMO *+      CLEAR     55  54  94 CALM      30.12R
MARION +         N/A     54  53  97 CALM      30.12R
MT COMFORT *+    N/A     55 N/A N/A CALM      30.12R VSB 1/2
SHELBYVILLE    CLEAR     59  56  89 NE3       30.11R FOG
ZIONSVILLE +   CLEAR     58  55  91 CALM      30.12R FOG

$$

INZ033-034-041-042-049-050-058-059-011200-
EAST CENTRAL INDIANA

CITY           SKY/WX    TMP DP  RH WIND       PRES   REMARKS
MUNCIE         CLEAR     58  54  86 CALM      30.12R FOG

$$

INZ060-061-067>069-081>083-085>088-011200-
SOUTHWEST INDIANA

CITY           SKY/WX    TMP DP  RH WIND       PRES   REMARKS
EVANSVILLE     PTCLDY    64  60  87 CALM      30.09R
WASHINGTON +   PTCLDY    57  57 100 CALM      30.10R FOG

$$

INZ062-063-066-070>080-084-089>092-011200-
SOUTH CENTRAL AND SOUTHEAST INDIANA

CITY           SKY/WX    TMP DP  RH WIND       PRES   REMARKS
BEDFORD +      CLEAR     61  57  88 CALM      30.11  FOG
BLOOMINGTON    FOG       58  56  93 CALM      30.11R VSB 1/4
NORTH VERNON + CLEAR     59  59 100 CALM      30.12  FOG

$$



USA.gov is the U.S. government's official web portal to all federal, state and local government web resources and services.